Time,TemperatureF,DewpointF,PressureIn,WindDirection,WindDirectionDegrees,WindSpeedMPH,WindSpeedGustMPH,Humidity,HourlyPrecipIn,Conditions,Clouds,dailyrainin,SoftwareType,DateUTC
2013-05-15 00:02:00,58.0,22.0,30.01,North,0,4.7,8.9,25,0.00,,,0.00,WUHU216HW,2013-05-15 06:02:00,
2013-05-15 00:07:00,58.0,22.0,30.01,NNW,338,6.3,8.5,25,0.00,,,0.00,WUHU216HW,2013-05-15 06:07:00,
2013-05-15 00:12:00,58.0,22.0,30.01,North,0,5.4,8.5,25,0.00,,,0.00,WUHU216HW,2013-05-15 06:12:00,
2013-05-15 00:17:00,58.0,22.0,30.01,North,0,6.9,7.4,25,0.00,,,0.00,WUHU216HW,2013-05-15 06:17:00,
2013-05-15 00:22:00,57.8,21.8,30.02,NNW,338,9.6,9.6,25,0.00,,,0.00,WUHU216HW,2013-05-15 06:22:00,
2013-05-15 00:27:00,57.6,21.6,30.02,North,0,4.5,9.6,25,0.00,,,0.00,WUHU216HW,2013-05-15 06:27:00,
2013-05-15 00:32:00,57.6,23.6,30.02,North,0,6.7,9.4,27,0.00,,,0.00,WUHU216HW,2013-05-15 06:32:00,
2013-05-15 00:37:00,57.6,23.6,30.01,NNW,338,6.3,9.4,27,0.00,,,0.00,WUHU216HW,2013-05-15 06:37:00,
2013-05-15 00:42:00,57.4,23.4,30.01,NNW,338,4.5,6.9,27,0.00,,,0.00,WUHU216HW,2013-05-15 06:42:00,
2013-05-15 00:47:00,57.4,23.4,30.02,NNW,338,3.1,6.5,27,0.00,,,0.00,WUHU216HW,2013-05-15 06:47:00,
2013-05-15 00:52:00,57.4,23.4,30.02,NNE,23,3.8,5.1,27,0.00,,,0.00,WUHU216HW,2013-05-15 06:52:00,
2013-05-15 00:57:00,57.4,23.4,30.02,North,0,3.4,5.1,27,0.00,,,0.00,WUHU216HW,2013-05-15 06:57:00,
2013-05-15 01:02:00,57.4,23.4,30.01,North,0,2.2,4.7,27,0.00,,,0.00,WUHU216HW,2013-05-15 07:02:00,
2013-05-15 01:07:00,57.2,23.2,30.01,NNW,338,3.8,4.7,27,0.00,,,0.00,WUHU216HW,2013-05-15 07:07:00,
2013-05-15 01:12:00,57.1,23.0,30.01,NNE,23,3.8,4.5,27,0.00,,,0.00,WUHU216HW,2013-05-15 07:12:00,
2013-05-15 01:17:00,56.7,23.8,30.02,NNW,338,4.0,4.5,28,0.00,,,0.00,WUHU216HW,2013-05-15 07:17:00,
2013-05-15 01:22:00,56.2,23.2,30.02,NNW,338,4.0,4.9,28,0.00,,,0.00,WUHU216HW,2013-05-15 07:22:00,
2013-05-15 01:27:00,56.0,23.0,30.02,North,0,6.7,6.7,28,0.00,,,0.00,WUHU216HW,2013-05-15 07:27:00,
2013-05-15 01:32:00,56.5,23.6,30.02,NNW,338,5.4,7.8,28,0.00,,,0.00,WUHU216HW,2013-05-15 07:32:00,
2013-05-15 01:37:00,56.9,23.9,30.02,North,0,5.4,7.8,28,0.00,,,0.00,WUHU216HW,2013-05-15 07:37:00,
2013-05-15 01:42:00,57.1,24.0,30.02,NNW,338,6.0,7.2,28,0.00,,,0.00,WUHU216HW,2013-05-15 07:42:00,
2013-05-15 01:47:00,57.1,24.0,30.02,North,0,6.0,7.2,28,0.00,,,0.00,WUHU216HW,2013-05-15 07:47:00,
2013-05-15 01:52:00,56.9,23.9,30.02,NNW,338,2.5,6.3,28,0.00,,,0.00,WUHU216HW,2013-05-15 07:52:00,
2013-05-15 01:57:00,56.9,23.9,30.03,North,0,3.8,6.3,28,0.00,,,0.00,WUHU216HW,2013-05-15 07:57:00,
2013-05-15 02:02:00,56.5,23.6,30.03,NNW,338,4.7,6.3,28,0.00,,,0.00,WUHU216HW,2013-05-15 08:02:00,
2013-05-15 02:07:00,56.5,23.6,30.03,North,0,4.7,7.2,28,0.00,,,0.00,WUHU216HW,2013-05-15 08:07:00,
2013-05-15 02:12:00,56.5,23.6,30.03,North,0,3.4,7.2,28,0.00,,,0.00,WUHU216HW,2013-05-15 08:12:00,
2013-05-15 02:17:00,56.3,23.4,30.03,North,0,3.8,6.3,28,0.00,,,0.00,WUHU216HW,2013-05-15 08:17:00,
2013-05-15 02:22:00,56.2,23.2,30.03,North,0,4.9,7.6,28,0.00,,,0.00,WUHU216HW,2013-05-15 08:22:00,
2013-05-15 02:27:00,55.8,23.0,30.03,North,0,5.4,7.6,28,0.00,,,0.00,WUHU216HW,2013-05-15 08:27:00,
2013-05-15 02:32:00,55.6,22.8,30.03,North,0,3.6,5.6,28,0.00,,,0.00,WUHU216HW,2013-05-15 08:32:00,
2013-05-15 02:37:00,55.4,22.6,30.03,North,0,4.0,5.6,28,0.00,,,0.00,WUHU216HW,2013-05-15 08:37:00,
2013-05-15 02:42:00,55.3,22.5,30.03,North,0,3.6,5.4,28,0.00,,,0.00,WUHU216HW,2013-05-15 08:42:00,
2013-05-15 02:48:00,54.9,22.1,30.03,NE,45,1.6,5.1,28,0.00,,,0.00,WUHU216HW,2013-05-15 08:48:00,
2013-05-15 02:53:00,53.8,21.2,30.03,NE,45,2.0,4.0,28,0.00,,,0.00,WUHU216HW,2013-05-15 08:53:00,
2013-05-15 02:58:00,52.6,22.1,30.03,NE,45,2.5,3.8,30,0.00,,,0.00,WUHU216HW,2013-05-15 08:58:00,
2013-05-15 03:03:00,51.8,22.2,30.03,NE,45,1.8,3.8,31,0.00,,,0.00,WUHU216HW,2013-05-15 09:03:00,
2013-05-15 03:08:00,51.5,21.8,30.03,NE,45,1.8,3.4,31,0.00,,,0.00,WUHU216HW,2013-05-15 09:08:00,
2013-05-15 03:13:00,51.5,21.8,30.03,NE,45,2.2,2.9,31,0.00,,,0.00,WUHU216HW,2013-05-15 09:13:00,
2013-05-15 03:18:00,51.3,21.6,30.03,NE,45,1.8,2.7,31,0.00,,,0.00,WUHU216HW,2013-05-15 09:18:00,
2013-05-15 03:23:00,51.1,22.1,30.03,NE,45,2.5,2.7,32,0.00,,,0.00,WUHU216HW,2013-05-15 09:23:00,
2013-05-15 03:28:00,50.6,22.3,30.03,NE,45,3.4,3.4,33,0.00,,,0.00,WUHU216HW,2013-05-15 09:28:00,
2013-05-15 03:33:00,50.2,22.1,30.03,NE,45,3.6,3.6,33,0.00,,,0.00,WUHU216HW,2013-05-15 09:33:00,
2013-05-15 03:38:00,49.9,22.4,30.03,NE,45,1.8,3.8,34,0.00,,,0.00,WUHU216HW,2013-05-15 09:38:00,
2013-05-15 03:43:00,49.7,22.2,30.03,ENE,68,2.9,3.8,34,0.00,,,0.00,WUHU216HW,2013-05-15 09:43:00,
2013-05-15 03:48:00,49.5,23.4,30.03,ENE,68,3.4,3.4,36,0.00,,,0.00,WUHU216HW,2013-05-15 09:48:00,
2013-05-15 03:53:00,49.7,23.6,30.03,ENE,68,3.4,3.8,36,0.00,,,0.00,WUHU216HW,2013-05-15 09:53:00,
2013-05-15 03:58:00,50.0,24.0,30.03,NE,45,1.6,4.0,36,0.00,,,0.00,WUHU216HW,2013-05-15 09:58:00,
2013-05-15 04:03:00,50.0,23.2,30.03,NE,45,2.5,4.0,35,0.00,,,0.00,WUHU216HW,2013-05-15 10:03:00,
2013-05-15 04:08:00,50.0,23.2,30.03,NE,45,1.8,2.5,35,0.00,,,0.00,WUHU216HW,2013-05-15 10:08:00,
2013-05-15 04:13:00,49.9,23.8,30.03,WSW,248,0.0,3.1,36,0.00,,,0.00,WUHU216HW,2013-05-15 10:13:00,
2013-05-15 04:18:00,49.5,23.4,30.04,ENE,68,3.8,3.8,36,0.00,,,0.00,WUHU216HW,2013-05-15 10:18:00,
2013-05-15 04:23:00,49.0,23.7,30.03,ENE,68,2.0,3.8,37,0.00,,,0.00,WUHU216HW,2013-05-15 10:23:00,
2013-05-15 04:28:00,48.6,23.3,30.03,NE,45,2.2,2.9,37,0.00,,,0.00,WUHU216HW,2013-05-15 10:28:00,
2013-05-15 04:33:00,48.4,23.9,30.03,NE,45,4.3,4.3,38,0.00,,,0.00,WUHU216HW,2013-05-15 10:33:00,
2013-05-15 04:38:00,48.1,23.5,30.03,NE,45,3.1,4.3,38,0.00,,,0.00,WUHU216HW,2013-05-15 10:38:00,
2013-05-15 04:43:00,47.7,23.2,30.03,ENE,68,4.7,5.1,38,0.00,,,0.00,WUHU216HW,2013-05-15 10:43:00,
2013-05-15 04:48:00,47.2,22.7,30.03,NE,45,4.0,5.1,38,0.00,,,0.00,WUHU216HW,2013-05-15 10:48:00,
2013-05-15 04:53:00,47.2,23.4,30.03,NE,45,3.8,4.7,39,0.00,,,0.00,WUHU216HW,2013-05-15 10:53:00,
2013-05-15 04:58:00,46.8,23.0,30.03,ENE,68,5.4,5.6,39,0.00,,,0.00,WUHU216HW,2013-05-15 10:58:00,
2013-05-15 05:04:00,46.4,23.4,30.03,ENE,68,6.5,6.5,40,0.00,,,0.00,WUHU216HW,2013-05-15 11:04:00,
2013-05-15 05:09:00,46.4,23.4,30.03,ENE,68,4.9,6.5,40,0.00,,,0.00,WUHU216HW,2013-05-15 11:09:00,
2013-05-15 05:14:00,46.3,23.2,30.03,East,90,3.8,5.6,40,0.00,,,0.00,WUHU216HW,2013-05-15 11:14:00,
2013-05-15 05:19:00,45.7,22.8,30.03,ENE,68,1.8,4.9,40,0.00,,,0.00,WUHU216HW,2013-05-15 11:19:00,
2013-05-15 05:24:00,45.4,21.8,30.03,ENE,68,1.1,2.9,39,0.00,,,0.00,WUHU216HW,2013-05-15 11:24:00,
2013-05-15 05:29:00,45.0,21.4,30.03,East,90,0.9,2.2,39,0.00,,,0.00,WUHU216HW,2013-05-15 11:29:00,
2013-05-15 05:34:00,44.6,21.2,30.03,East,90,0.9,2.2,39,0.00,,,0.00,WUHU216HW,2013-05-15 11:34:00,
2013-05-15 05:39:00,44.1,21.3,30.03,ENE,68,1.8,2.5,40,0.00,,,0.00,WUHU216HW,2013-05-15 11:39:00,
2013-05-15 05:44:00,43.7,21.0,30.03,ENE,68,1.3,2.5,40,0.00,,,0.00,WUHU216HW,2013-05-15 11:44:00,
2013-05-15 05:49:00,43.6,21.3,30.04,ENE,68,0.0,2.5,41,0.00,,,0.00,WUHU216HW,2013-05-15 11:49:00,
2013-05-15 05:54:00,43.2,21.1,30.04,ENE,68,2.0,2.0,41,0.00,,,0.00,WUHU216HW,2013-05-15 11:54:00,
2013-05-15 05:59:00,43.0,21.4,30.04,ENE,68,1.8,2.9,42,0.00,,,0.00,WUHU216HW,2013-05-15 11:59:00,
2013-05-15 06:04:00,42.8,21.2,30.04,ENE,68,1.1,2.9,42,0.00,,,0.00,WUHU216HW,2013-05-15 12:04:00,
2013-05-15 06:09:00,42.8,21.8,30.04,ENE,68,2.0,3.8,43,0.00,,,0.00,WUHU216HW,2013-05-15 12:09:00,
2013-05-15 06:14:00,42.8,22.3,30.04,ENE,68,2.2,3.8,44,0.00,,,0.00,WUHU216HW,2013-05-15 12:14:00,
2013-05-15 06:20:00,42.8,22.9,30.04,ENE,68,3.4,3.4,45,0.00,,,0.00,WUHU216HW,2013-05-15 12:20:00,
2013-05-15 06:26:00,42.8,22.9,30.04,ENE,68,0.4,3.4,45,0.00,,,0.00,WUHU216HW,2013-05-15 12:26:00,
2013-05-15 06:31:00,43.2,22.7,30.05,ESE,113,2.2,2.9,44,0.00,,,0.00,WUHU216HW,2013-05-15 12:31:00,
2013-05-15 06:36:00,43.4,23.3,30.05,ESE,113,0.4,2.7,45,0.00,,,0.00,WUHU216HW,2013-05-15 12:36:00,
2013-05-15 06:41:00,43.7,23.7,30.05,East,90,1.1,2.2,45,0.00,,,0.00,WUHU216HW,2013-05-15 12:41:00,
2013-05-15 06:47:00,44.3,24.1,30.05,East,90,1.8,1.8,45,0.00,,,0.00,WUHU216HW,2013-05-15 12:47:00,
2013-05-15 06:52:00,44.6,24.5,30.05,East,90,1.8,1.8,45,0.00,,,0.00,WUHU216HW,2013-05-15 12:52:00,
2013-05-15 06:57:00,45.2,24.9,30.05,ESE,113,0.0,1.8,45,0.00,,,0.00,WUHU216HW,2013-05-15 12:57:00,
2013-05-15 07:02:00,45.7,24.9,30.06,ESE,113,0.0,1.3,44,0.00,,,0.00,WUHU216HW,2013-05-15 13:02:00,
2013-05-15 07:07:00,46.3,25.4,30.05,ESE,113,0.0,0.4,44,0.00,,,0.00,WUHU216HW,2013-05-15 13:07:00,
2013-05-15 07:12:00,46.4,25.0,30.05,ESE,113,0.0,0.0,43,0.00,,,0.00,WUHU216HW,2013-05-15 13:12:00,
2013-05-15 07:17:00,47.2,25.7,30.06,SW,225,0.4,1.1,43,0.00,,,0.00,WUHU216HW,2013-05-15 13:17:00,
2013-05-15 07:22:00,47.7,26.2,30.06,SW,225,0.0,1.1,43,0.00,,,0.00,WUHU216HW,2013-05-15 13:22:00,
2013-05-15 07:28:00,48.2,26.1,30.06,SW,225,1.1,1.1,42,0.00,,,0.00,WUHU216HW,2013-05-15 13:28:00,
2013-05-15 07:33:00,48.6,26.5,30.06,SSW,203,0.0,1.1,42,0.00,,,0.00,WUHU216HW,2013-05-15 13:33:00,
2013-05-15 07:38:00,49.1,26.9,30.06,SSE,158,0.4,0.9,42,0.00,,,0.00,WUHU216HW,2013-05-15 13:38:00,
2013-05-15 07:43:00,49.5,26.7,30.06,SSE,158,0.0,0.7,41,0.00,,,0.00,WUHU216HW,2013-05-15 13:43:00,
2013-05-15 07:48:00,49.9,27.0,30.06,SSE,158,0.7,0.9,41,0.00,,,0.00,WUHU216HW,2013-05-15 13:48:00,
2013-05-15 07:53:00,50.4,27.6,30.05,SSE,158,0.0,0.9,41,0.00,,,0.00,WUHU216HW,2013-05-15 13:53:00,
2013-05-15 07:59:00,50.8,27.8,30.05,WSW,248,0.2,1.6,41,0.00,,,0.00,WUHU216HW,2013-05-15 13:59:00,
2013-05-15 08:04:00,51.3,28.4,30.05,West,270,0.9,1.6,41,0.00,,,0.00,WUHU216HW,2013-05-15 14:04:00,
2013-05-15 08:09:00,51.7,28.6,30.05,West,270,1.8,1.8,41,0.00,,,0.00,WUHU216HW,2013-05-15 14:09:00,
2013-05-15 08:14:00,52.2,29.2,30.05,North,0,1.1,1.8,41,0.00,,,0.00,WUHU216HW,2013-05-15 14:14:00,
2013-05-15 08:19:00,52.7,29.1,30.05,WNW,293,1.8,2.2,40,0.00,,,0.00,WUHU216HW,2013-05-15 14:19:00,
2013-05-15 08:24:00,53.1,28.7,30.05,West,270,0.7,2.2,39,0.00,,,0.00,WUHU216HW,2013-05-15 14:24:00,
2013-05-15 08:29:00,53.5,29.1,30.05,West,270,0.0,2.7,39,0.00,,,0.00,WUHU216HW,2013-05-15 14:29:00,
2013-05-15 08:34:00,54.0,28.8,30.04,NW,315,0.0,2.7,38,0.00,,,0.00,WUHU216HW,2013-05-15 14:34:00,
2013-05-15 08:40:00,54.5,28.6,30.04,NW,315,0.4,1.8,37,0.00,,,0.00,WUHU216HW,2013-05-15 14:40:00,
2013-05-15 08:44:00,55.1,29.1,30.04,West,270,0.7,1.8,37,0.00,,,0.00,WUHU216HW,2013-05-15 14:44:00,
2013-05-15 08:50:00,55.8,28.4,30.04,North,0,0.4,1.3,35,0.00,,,0.00,WUHU216HW,2013-05-15 14:50:00,
2013-05-15 08:55:00,56.2,27.9,30.04,NNW,338,2.5,2.5,34,0.00,,,0.00,WUHU216HW,2013-05-15 14:55:00,
2013-05-15 09:00:00,56.5,27.5,30.04,North,0,2.5,2.9,33,0.00,,,0.00,WUHU216HW,2013-05-15 15:00:00,
2013-05-15 09:06:00,56.7,27.7,30.04,WSW,248,2.5,3.6,33,0.00,,,0.00,WUHU216HW,2013-05-15 15:06:00,
2013-05-15 09:11:00,57.2,28.2,30.03,NW,315,1.3,3.6,33,0.00,,,0.00,WUHU216HW,2013-05-15 15:11:00,
2013-05-15 09:16:00,57.2,27.6,30.03,NNW,338,5.4,5.4,32,0.00,,,0.00,WUHU216HW,2013-05-15 15:16:00,
2013-05-15 09:21:00,57.8,27.3,30.03,NW,315,5.1,5.4,31,0.00,,,0.00,WUHU216HW,2013-05-15 15:21:00,
2013-05-15 09:26:00,58.0,27.5,30.03,NW,315,2.5,5.1,31,0.00,,,0.00,WUHU216HW,2013-05-15 15:26:00,
2013-05-15 09:31:00,58.0,27.5,30.03,NNW,338,4.3,4.7,31,0.00,,,0.00,WUHU216HW,2013-05-15 15:31:00,
2013-05-15 09:36:00,58.3,27.1,30.03,North,0,4.5,4.7,30,0.00,,,0.00,WUHU216HW,2013-05-15 15:36:00,
2013-05-15 09:41:00,58.7,27.4,30.03,WNW,293,2.5,4.5,30,0.00,,,0.00,WUHU216HW,2013-05-15 15:41:00,
2013-05-15 09:47:00,59.2,27.9,30.03,WNW,293,4.7,4.9,30,0.00,,,0.00,WUHU216HW,2013-05-15 15:47:00,
2013-05-15 09:52:00,59.8,27.4,30.03,WNW,293,5.4,5.6,29,0.00,,,0.00,WUHU216HW,2013-05-15 15:52:00,
2013-05-15 09:57:00,60.1,27.6,30.02,West,270,4.0,6.3,29,0.00,,,0.00,WUHU216HW,2013-05-15 15:57:00,
2013-05-15 10:02:00,60.3,27.8,30.02,SW,225,2.5,6.3,29,0.00,,,0.00,WUHU216HW,2013-05-15 16:02:00,
2013-05-15 10:07:00,60.7,28.1,30.02,WSW,248,3.6,4.0,29,0.00,,,0.00,WUHU216HW,2013-05-15 16:07:00,
2013-05-15 10:12:00,61.2,28.5,30.02,NNW,338,0.7,4.3,29,0.00,,,0.00,WUHU216HW,2013-05-15 16:12:00,
2013-05-15 10:18:00,61.6,27.9,30.02,NW,315,6.0,6.0,28,0.00,,,0.00,WUHU216HW,2013-05-15 16:18:00,
2013-05-15 10:23:00,62.1,29.4,30.02,WSW,248,5.8,6.0,29,0.00,,,0.00,WUHU216HW,2013-05-15 16:23:00,
2013-05-15 10:28:00,62.3,28.5,30.01,NW,315,2.7,6.0,28,0.00,,,0.00,WUHU216HW,2013-05-15 16:28:00,
2013-05-15 10:33:00,62.5,28.7,30.01,SSW,203,1.1,4.0,28,0.00,,,0.00,WUHU216HW,2013-05-15 16:33:00,
2013-05-15 10:38:00,62.6,28.8,30.01,WSW,248,4.3,6.9,28,0.00,,,0.00,WUHU216HW,2013-05-15 16:38:00,
2013-05-15 10:44:00,62.8,28.0,30.01,West,270,2.7,6.9,27,0.00,,,0.00,WUHU216HW,2013-05-15 16:44:00,
2013-05-15 10:49:00,63.0,28.2,30.01,SW,225,2.5,4.7,27,0.00,,,0.00,WUHU216HW,2013-05-15 16:49:00,
2013-05-15 10:54:00,63.4,27.6,30.01,North,0,4.3,4.7,26,0.00,,,0.00,WUHU216HW,2013-05-15 16:54:00,
2013-05-15 10:59:00,63.5,26.7,30.00,NNE,23,1.8,4.7,25,0.00,,,0.00,WUHU216HW,2013-05-15 16:59:00,
2013-05-15 11:04:00,63.7,28.8,30.00,WNW,293,0.4,4.7,27,0.00,,,0.00,WUHU216HW,2013-05-15 17:04:00,
2013-05-15 11:09:00,64.6,29.6,30.00,WSW,248,1.8,5.6,27,0.00,,,0.00,WUHU216HW,2013-05-15 17:09:00,
2013-05-15 11:15:00,65.5,31.4,30.00,WSW,248,0.9,5.6,28,0.00,,,0.00,WUHU216HW,2013-05-15 17:15:00,
2013-05-15 11:20:00,65.5,28.4,30.00,NW,315,4.7,6.5,25,0.00,,,0.00,WUHU216HW,2013-05-15 17:20:00,
2013-05-15 11:25:00,65.2,28.1,30.00,NNE,23,1.1,6.5,25,0.00,,,0.00,WUHU216HW,2013-05-15 17:25:00,
2013-05-15 11:30:00,65.2,28.1,30.00,NNW,338,2.5,4.9,25,0.00,,,0.00,WUHU216HW,2013-05-15 17:30:00,
2013-05-15 11:35:00,65.5,28.4,29.99,WNW,293,0.4,4.5,25,0.00,,,0.00,WUHU216HW,2013-05-15 17:35:00,
2013-05-15 11:40:00,66.2,28.0,29.99,NNW,338,4.9,4.9,24,0.00,,,0.00,WUHU216HW,2013-05-15 17:40:00,
2013-05-15 11:45:00,66.2,28.0,29.99,North,0,1.1,5.4,24,0.00,,,0.00,WUHU216HW,2013-05-15 17:45:00,
2013-05-15 11:51:00,66.6,28.3,29.99,West,270,4.9,6.0,24,0.00,,,0.00,WUHU216HW,2013-05-15 17:51:00,
2013-05-15 11:56:00,67.0,27.6,29.98,North,0,2.9,6.0,23,0.00,,,0.00,WUHU216HW,2013-05-15 17:56:00,
2013-05-15 12:01:00,67.1,27.7,29.98,North,0,3.4,4.7,23,0.00,,,0.00,WUHU216HW,2013-05-15 18:01:00,
2013-05-15 12:06:00,68.0,28.5,29.98,West,270,0.9,3.4,23,0.00,,,0.00,WUHU216HW,2013-05-15 18:06:00,
2013-05-15 12:11:00,68.8,29.2,29.98,SW,225,4.3,5.4,23,0.00,,,0.00,WUHU216HW,2013-05-15 18:11:00,
2013-05-15 12:16:00,69.3,28.5,29.98,SW,225,5.1,5.6,22,0.00,,,0.00,WUHU216HW,2013-05-15 18:16:00,
2013-05-15 12:21:00,69.7,28.9,29.97,WSW,248,2.5,6.3,22,0.00,,,0.00,WUHU216HW,2013-05-15 18:21:00,
2013-05-15 12:27:00,70.0,28.2,29.97,NNW,338,3.1,6.3,21,0.00,,,0.00,WUHU216HW,2013-05-15 18:27:00,
2013-05-15 12:32:00,70.0,28.2,29.97,WNW,293,2.9,5.4,21,0.00,,,0.00,WUHU216HW,2013-05-15 18:32:00,
2013-05-15 12:37:00,69.7,27.9,29.97,WSW,248,3.1,6.0,21,0.00,,,0.00,WUHU216HW,2013-05-15 18:37:00,
2013-05-15 12:42:00,69.7,27.9,29.96,West,270,4.9,6.7,21,0.00,,,0.00,WUHU216HW,2013-05-15 18:42:00,
2013-05-15 12:47:00,69.7,26.8,29.96,NNW,338,0.7,6.7,20,0.00,,,0.00,WUHU216HW,2013-05-15 18:47:00,
2013-05-15 12:52:00,69.5,27.7,29.96,NW,315,2.7,5.4,21,0.00,,,0.00,WUHU216HW,2013-05-15 18:52:00,
2013-05-15 12:58:00,70.0,28.2,29.96,NW,315,8.3,8.3,21,0.00,,,0.00,WUHU216HW,2013-05-15 18:58:00,
2013-05-15 13:03:00,70.2,28.3,29.96,WNW,293,0.9,8.3,21,0.00,,,0.00,WUHU216HW,2013-05-15 19:03:00,
2013-05-15 13:08:00,71.1,29.1,29.96,SW,225,2.2,6.5,21,0.00,,,0.00,WUHU216HW,2013-05-15 19:08:00,
2013-05-15 13:13:00,71.8,29.6,29.95,WNW,293,4.7,5.8,21,0.00,,,0.00,WUHU216HW,2013-05-15 19:13:00,
2013-05-15 13:18:00,72.0,28.8,29.95,West,270,6.3,7.4,20,0.00,,,0.00,WUHU216HW,2013-05-15 19:18:00,
2013-05-15 13:23:00,72.4,27.5,29.95,NW,315,3.4,7.6,19,0.00,,,0.00,WUHU216HW,2013-05-15 19:23:00,
2013-05-15 13:29:00,72.0,29.8,29.95,WSW,248,2.5,8.5,21,0.00,,,0.00,WUHU216HW,2013-05-15 19:29:00,
2013-05-15 13:34:00,72.4,29.1,29.94,WNW,293,2.5,8.5,20,0.00,,,0.00,WUHU216HW,2013-05-15 19:34:00,
2013-05-15 13:39:00,73.1,28.1,29.94,NNW,338,3.1,7.4,19,0.00,,,0.00,WUHU216HW,2013-05-15 19:39:00,
2013-05-15 13:44:00,73.3,28.3,29.94,WNW,293,3.4,6.3,19,0.00,,,0.00,WUHU216HW,2013-05-15 19:44:00,
2013-05-15 13:49:00,73.4,28.5,29.94,NW,315,1.1,6.3,19,0.00,,,0.00,WUHU216HW,2013-05-15 19:49:00,
2013-05-15 13:55:00,74.2,29.0,29.93,WSW,248,4.7,5.4,19,0.00,,,0.00,WUHU216HW,2013-05-15 19:55:00,
2013-05-15 14:00:00,74.7,29.4,29.93,WSW,248,1.3,6.3,19,0.00,,,0.00,WUHU216HW,2013-05-15 20:00:00,
2013-05-15 14:05:00,74.9,27.9,29.93,WSW,248,6.0,6.3,18,0.00,,,0.00,WUHU216HW,2013-05-15 20:05:00,
2013-05-15 14:10:00,74.3,27.5,29.93,NW,315,1.6,6.3,18,0.00,,,0.00,WUHU216HW,2013-05-15 20:10:00,
2013-05-15 14:15:00,74.2,27.4,29.93,WSW,248,5.4,6.3,18,0.00,,,0.00,WUHU216HW,2013-05-15 20:15:00,
2013-05-15 14:20:00,74.5,29.3,29.93,SSW,203,1.1,5.4,19,0.00,,,0.00,WUHU216HW,2013-05-15 20:20:00,
2013-05-15 14:25:00,75.2,28.2,29.92,NW,315,4.5,4.5,18,0.00,,,0.00,WUHU216HW,2013-05-15 20:25:00,
2013-05-15 14:31:00,75.2,26.6,29.92,West,270,4.7,6.3,17,0.00,,,0.00,WUHU216HW,2013-05-15 20:31:00,
2013-05-15 14:36:00,74.7,27.8,29.92,NW,315,2.7,6.3,18,0.00,,,0.00,WUHU216HW,2013-05-15 20:36:00,
2013-05-15 14:41:00,74.5,26.0,29.92,North,0,2.7,5.4,17,0.00,,,0.00,WUHU216HW,2013-05-15 20:41:00,
2013-05-15 14:46:00,74.5,26.0,29.92,NW,315,2.9,5.1,17,0.00,,,0.00,WUHU216HW,2013-05-15 20:46:00,
2013-05-15 14:51:00,74.0,25.6,29.92,NNW,338,4.3,5.4,17,0.00,,,0.00,WUHU216HW,2013-05-15 20:51:00,
2013-05-15 14:56:00,73.8,27.1,29.92,South,180,1.8,5.4,18,0.00,,,0.00,WUHU216HW,2013-05-15 20:56:00,
2013-05-15 15:01:00,74.3,25.8,29.91,NE,45,6.3,6.3,17,0.00,,,0.00,WUHU216HW,2013-05-15 21:01:00,
2013-05-15 15:06:00,74.2,27.4,29.91,East,90,2.7,6.3,18,0.00,,,0.00,WUHU216HW,2013-05-15 21:06:00,
2013-05-15 15:12:00,74.7,27.8,29.90,NE,45,5.6,5.6,18,0.00,,,0.00,WUHU216HW,2013-05-15 21:12:00,
2013-05-15 15:17:00,74.5,26.0,29.90,ENE,68,3.1,6.3,17,0.00,,,0.00,WUHU216HW,2013-05-15 21:17:00,
2013-05-15 15:22:00,74.5,26.0,29.90,NNW,338,2.7,4.3,17,0.00,,,0.00,WUHU216HW,2013-05-15 21:22:00,
2013-05-15 15:27:00,74.9,26.3,29.90,NW,315,2.5,4.3,17,0.00,,,0.00,WUHU216HW,2013-05-15 21:27:00,
2013-05-15 15:32:00,74.5,26.0,29.90,North,0,0.4,4.3,17,0.00,,,0.00,WUHU216HW,2013-05-15 21:32:00,
2013-05-15 15:37:00,74.5,26.0,29.90,NNW,338,2.9,4.5,17,0.00,,,0.00,WUHU216HW,2013-05-15 21:37:00,
2013-05-15 15:43:00,73.8,25.4,29.90,NW,315,8.1,8.1,17,0.00,,,0.00,WUHU216HW,2013-05-15 21:43:00,
2013-05-15 15:48:00,73.4,26.8,29.90,NW,315,8.5,8.5,18,0.00,,,0.00,WUHU216HW,2013-05-15 21:48:00,
2013-05-15 15:54:00,72.9,24.7,29.89,NNW,338,5.1,8.7,17,0.00,,,0.00,WUHU216HW,2013-05-15 21:54:00,
2013-05-15 15:59:00,73.1,24.9,29.89,WNW,293,5.4,9.4,17,0.00,,,0.00,WUHU216HW,2013-05-15 21:59:00,
2013-05-15 16:04:00,73.3,25.0,29.89,NW,315,6.3,9.4,17,0.00,,,0.00,WUHU216HW,2013-05-15 22:04:00,
2013-05-15 16:09:00,73.6,25.3,29.89,NNE,23,3.4,9.8,17,0.00,,,0.00,WUHU216HW,2013-05-15 22:09:00,
2013-05-15 16:14:00,74.7,24.5,29.89,NE,45,5.4,9.8,16,0.00,,,0.00,WUHU216HW,2013-05-15 22:14:00,
2013-05-15 16:19:00,75.4,25.0,29.88,NE,45,6.5,8.5,16,0.00,,,0.00,WUHU216HW,2013-05-15 22:19:00,
2013-05-15 16:24:00,75.1,24.8,29.88,NNW,338,6.7,8.5,16,0.00,,,0.00,WUHU216HW,2013-05-15 22:24:00,
2013-05-15 16:29:00,74.0,24.0,29.88,NNW,338,6.3,9.4,16,0.00,,,0.00,WUHU216HW,2013-05-15 22:29:00,
2013-05-15 16:35:00,74.0,24.0,29.87,NNW,338,3.6,9.4,16,0.00,,,0.00,WUHU216HW,2013-05-15 22:35:00,
2013-05-15 16:41:00,74.3,24.2,29.87,NE,45,5.4,9.6,16,0.00,,,0.00,WUHU216HW,2013-05-15 22:41:00,
2013-05-15 16:46:00,74.0,24.0,29.87,North,0,3.4,9.6,16,0.00,,,0.00,WUHU216HW,2013-05-15 22:46:00,
2013-05-15 16:51:00,74.5,24.3,29.86,NNW,338,3.6,5.6,16,0.00,,,0.00,WUHU216HW,2013-05-15 22:51:00,
2013-05-15 16:56:00,76.1,23.9,29.86,NW,315,7.2,8.1,15,0.00,,,0.00,WUHU216HW,2013-05-15 22:56:00,
2013-05-15 17:01:00,77.0,21.3,29.87,North,0,4.7,9.8,13,0.00,,,0.00,WUHU216HW,2013-05-15 23:01:00,
2013-05-15 17:06:00,77.6,21.8,29.86,North,0,2.7,9.8,13,0.00,,,0.00,WUHU216HW,2013-05-15 23:06:00,
2013-05-15 17:11:00,79.2,26.3,29.86,NE,45,3.8,6.5,15,0.00,,,0.00,WUHU216HW,2013-05-15 23:11:00,
2013-05-15 17:17:00,79.9,21.9,29.86,WNW,293,7.4,7.8,12,0.00,,,0.00,WUHU216HW,2013-05-15 23:17:00,
2013-05-15 17:22:00,79.4,23.1,29.87,NW,315,7.4,9.8,13,0.00,,,0.00,WUHU216HW,2013-05-15 23:22:00,
2013-05-15 17:27:00,79.2,21.2,29.87,NW,315,10.7,10.7,12,0.00,,,0.00,WUHU216HW,2013-05-15 23:27:00,
2013-05-15 17:32:00,77.8,21.9,29.87,NW,315,7.8,12.1,13,0.00,,,0.00,WUHU216HW,2013-05-15 23:32:00,
2013-05-15 17:38:00,76.9,24.5,29.87,NW,315,8.1,12.1,15,0.00,,,0.00,WUHU216HW,2013-05-15 23:38:00,
2013-05-15 17:43:00,75.6,26.8,29.87,NW,315,11.0,11.4,17,0.00,,,0.00,WUHU216HW,2013-05-15 23:43:00,
2013-05-15 17:48:00,74.7,27.8,29.87,NW,315,11.0,11.4,18,0.00,,,0.00,WUHU216HW,2013-05-15 23:48:00,
2013-05-15 17:53:00,74.3,29.2,29.87,WNW,293,10.1,13.0,19,0.00,,,0.00,WUHU216HW,2013-05-15 23:53:00,
2013-05-15 17:58:00,74.5,31.0,29.87,NW,315,12.5,16.8,20,0.00,,,0.00,WUHU216HW,2013-05-15 23:58:00,
2013-05-15 18:03:00,74.5,29.3,29.87,NW,315,14.8,16.8,19,0.00,,,0.00,WUHU216HW,2013-05-16 00:03:00,
2013-05-15 18:08:00,75.4,30.0,29.87,NW,315,12.8,14.8,19,0.00,,,0.00,WUHU216HW,2013-05-16 00:08:00,
2013-05-15 18:14:00,75.4,28.4,29.87,NW,315,12.8,14.3,18,0.00,,,0.00,WUHU216HW,2013-05-16 00:14:00,
2013-05-15 18:19:00,75.2,29.9,29.87,NW,315,12.5,14.5,19,0.00,,,0.00,WUHU216HW,2013-05-16 00:19:00,
2013-05-15 18:24:00,74.0,31.5,29.87,NW,315,12.1,14.5,21,0.00,,,0.00,WUHU216HW,2013-05-16 00:24:00,
2013-05-15 18:29:00,72.4,30.2,29.87,WNW,293,10.5,14.3,21,0.00,,,0.00,WUHU216HW,2013-05-16 00:29:00,
2013-05-15 18:34:00,71.5,30.3,29.87,NW,315,14.3,14.3,22,0.00,,,0.00,WUHU216HW,2013-05-16 00:34:00,
2013-05-15 18:39:00,70.9,29.9,29.87,NW,315,13.4,15.2,22,0.00,,,0.00,WUHU216HW,2013-05-16 00:39:00,
2013-05-15 18:45:00,70.7,30.8,29.87,NNW,338,13.2,15.2,23,0.00,,,0.00,WUHU216HW,2013-05-16 00:45:00,
2013-05-15 18:50:00,70.4,29.4,29.86,NW,315,11.2,15.0,22,0.00,,,0.00,WUHU216HW,2013-05-16 00:50:00,
2013-05-15 18:55:00,69.8,30.1,29.87,NNW,338,4.7,13.4,23,0.00,,,0.00,WUHU216HW,2013-05-16 00:55:00,
2013-05-15 19:00:00,69.5,29.7,29.87,NNW,338,8.5,12.1,23,0.00,,,0.00,WUHU216HW,2013-05-16 01:00:00,
2013-05-15 19:05:00,69.7,29.9,29.87,NNW,338,8.3,8.5,23,0.00,,,0.00,WUHU216HW,2013-05-16 01:05:00,
2013-05-15 19:10:00,70.2,30.3,29.87,NNW,338,9.4,9.4,23,0.00,,,0.00,WUHU216HW,2013-05-16 01:10:00,
2013-05-15 19:15:00,70.2,30.3,29.87,NNW,338,8.7,9.6,23,0.00,,,0.00,WUHU216HW,2013-05-16 01:15:00,
2013-05-15 19:20:00,72.0,30.8,29.86,NNW,338,10.3,10.5,22,0.00,,,0.00,WUHU216HW,2013-05-16 01:20:00,
2013-05-15 19:25:00,72.7,31.4,29.86,NNW,338,8.5,11.4,22,0.00,,,0.00,WUHU216HW,2013-05-16 01:25:00,
2013-05-15 19:30:00,71.6,31.5,29.86,NW,315,9.2,11.4,23,0.00,,,0.00,WUHU216HW,2013-05-16 01:30:00,
2013-05-15 19:35:00,70.2,30.3,29.86,NNW,338,6.5,10.3,23,0.00,,,0.00,WUHU216HW,2013-05-16 01:35:00,
2013-05-15 19:40:00,69.5,29.7,29.87,North,0,8.9,9.4,23,0.00,,,0.00,WUHU216HW,2013-05-16 01:40:00,
2013-05-15 19:45:00,68.8,29.2,29.87,North,0,7.6,10.3,23,0.00,,,0.00,WUHU216HW,2013-05-16 01:45:00,
2013-05-15 19:50:00,68.2,29.7,29.87,North,0,5.6,10.3,24,0.00,,,0.00,WUHU216HW,2013-05-16 01:50:00,
2013-05-15 19:55:00,68.0,29.5,29.87,North,0,6.5,8.5,24,0.00,,,0.00,WUHU216HW,2013-05-16 01:55:00,
2013-05-15 20:01:00,67.9,29.3,29.87,North,0,6.5,7.2,24,0.00,,,0.00,WUHU216HW,2013-05-16 02:01:00,
2013-05-15 20:06:00,67.5,29.1,29.87,North,0,8.5,8.5,24,0.00,,,0.00,WUHU216HW,2013-05-16 02:06:00,
2013-05-15 20:11:00,67.1,29.7,29.87,North,0,9.4,9.4,25,0.00,,,0.00,WUHU216HW,2013-05-16 02:11:00,
2013-05-15 20:16:00,67.0,29.6,29.88,NNW,338,5.8,9.4,25,0.00,,,0.00,WUHU216HW,2013-05-16 02:16:00,
2013-05-15 20:21:00,66.6,30.3,29.88,North,0,7.8,9.2,26,0.00,,,0.00,WUHU216HW,2013-05-16 02:21:00,
2013-05-15 20:26:00,66.6,30.3,29.88,NNW,338,5.8,7.8,26,0.00,,,0.00,WUHU216HW,2013-05-16 02:26:00,
2013-05-15 20:32:00,66.2,30.0,29.88,North,0,4.9,7.2,26,0.00,,,0.00,WUHU216HW,2013-05-16 02:32:00,
2013-05-15 20:37:00,65.9,29.7,29.88,NNW,338,5.4,6.3,26,0.00,,,0.00,WUHU216HW,2013-05-16 02:37:00,
2013-05-15 20:42:00,65.9,30.7,29.88,North,0,4.3,6.3,27,0.00,,,0.00,WUHU216HW,2013-05-16 02:42:00,
2013-05-15 20:48:00,65.5,31.4,29.88,North,0,2.7,5.1,28,0.00,,,0.00,WUHU216HW,2013-05-16 02:48:00,
2013-05-15 20:53:00,65.2,31.1,29.88,North,0,2.0,4.0,28,0.00,,,0.00,WUHU216HW,2013-05-16 02:53:00,
2013-05-15 20:59:00,65.2,31.1,29.88,North,0,2.5,4.0,28,0.00,,,0.00,WUHU216HW,2013-05-16 02:59:00,
2013-05-15 21:04:00,65.2,31.1,29.88,North,0,5.1,5.1,28,0.00,,,0.00,WUHU216HW,2013-05-16 03:04:00,
2013-05-15 21:09:00,65.0,30.9,29.88,North,0,4.9,5.6,28,0.00,,,0.00,WUHU216HW,2013-05-16 03:09:00,
2013-05-15 21:14:00,64.8,30.8,29.88,North,0,3.8,5.6,28,0.00,,,0.00,WUHU216HW,2013-05-16 03:14:00,
2013-05-15 21:21:00,64.4,30.4,29.88,North,0,7.6,7.6,28,0.00,,,0.00,WUHU216HW,2013-05-16 03:21:00,
2013-05-15 21:26:00,64.3,30.2,29.88,North,0,2.9,7.6,28,0.00,,,0.00,WUHU216HW,2013-05-16 03:26:00,
2013-05-15 21:31:00,64.1,29.2,29.88,NW,315,4.5,5.6,27,0.00,,,0.00,WUHU216HW,2013-05-16 03:31:00,
2013-05-15 21:36:00,63.7,28.8,29.89,NNE,23,4.0,5.4,27,0.00,,,0.00,WUHU216HW,2013-05-16 03:36:00,
2013-05-15 21:41:00,63.5,28.6,29.89,NE,45,5.6,6.0,27,0.00,,,0.00,WUHU216HW,2013-05-16 03:41:00,
2013-05-15 21:46:00,63.5,28.6,29.89,North,0,6.0,6.9,27,0.00,,,0.00,WUHU216HW,2013-05-16 03:46:00,
2013-05-15 21:51:00,63.4,28.5,29.89,NNE,23,4.5,8.5,27,0.00,,,0.00,WUHU216HW,2013-05-16 03:51:00,
2013-05-15 21:56:00,63.0,28.2,29.88,North,0,9.8,9.8,27,0.00,,,0.00,WUHU216HW,2013-05-16 03:56:00,
2013-05-15 22:01:00,63.0,29.2,29.88,NNE,23,5.4,9.8,28,0.00,,,0.00,WUHU216HW,2013-05-16 04:01:00,
2013-05-15 22:06:00,62.8,29.0,29.88,North,0,5.8,10.7,28,0.00,,,0.00,WUHU216HW,2013-05-16 04:06:00,
2013-05-15 22:11:00,62.5,28.7,29.88,NNE,23,5.4,7.8,28,0.00,,,0.00,WUHU216HW,2013-05-16 04:11:00,
2013-05-15 22:16:00,62.3,29.5,29.88,North,0,5.1,8.5,29,0.00,,,0.00,WUHU216HW,2013-05-16 04:16:00,
2013-05-15 22:21:00,62.1,29.4,29.88,North,0,4.7,8.5,29,0.00,,,0.00,WUHU216HW,2013-05-16 04:21:00,
2013-05-15 22:26:00,61.9,30.2,29.88,NNE,23,4.5,7.4,30,0.00,,,0.00,WUHU216HW,2013-05-16 04:26:00,
2013-05-15 22:31:00,61.7,30.0,29.88,North,0,4.0,6.7,30,0.00,,,0.00,WUHU216HW,2013-05-16 04:31:00,
2013-05-15 22:36:00,61.6,28.9,29.89,NE,45,2.7,5.4,29,0.00,,,0.00,WUHU216HW,2013-05-16 04:36:00,
2013-05-15 22:41:00,61.2,29.5,29.88,NE,45,2.0,4.3,30,0.00,,,0.00,WUHU216HW,2013-05-16 04:41:00,
2013-05-15 22:46:00,60.8,29.2,29.89,ENE,68,2.5,3.1,30,0.00,,,0.00,WUHU216HW,2013-05-16 04:46:00,
2013-05-15 22:51:00,60.3,28.7,29.89,NE,45,0.4,2.5,30,0.00,,,0.00,WUHU216HW,2013-05-16 04:51:00,
2013-05-15 22:56:00,60.1,30.0,29.89,NW,315,2.5,2.5,32,0.00,,,0.00,WUHU216HW,2013-05-16 04:56:00,
2013-05-15 23:01:00,60.1,30.0,29.90,West,270,1.8,2.5,32,0.00,,,0.00,WUHU216HW,2013-05-16 05:01:00,
2013-05-15 23:06:00,59.8,29.7,29.90,West,270,0.2,2.5,32,0.00,,,0.00,WUHU216HW,2013-05-16 05:06:00,
2013-05-15 23:11:00,59.2,30.0,29.90,North,0,1.1,1.6,33,0.00,,,0.00,WUHU216HW,2013-05-16 05:11:00,
2013-05-15 23:16:00,59.0,29.8,29.90,NE,45,2.5,2.5,33,0.00,,,0.00,WUHU216HW,2013-05-16 05:16:00,
2013-05-15 23:21:00,58.7,28.8,29.89,NE,45,1.6,2.9,32,0.00,,,0.00,WUHU216HW,2013-05-16 05:21:00,
2013-05-15 23:26:00,58.5,29.3,29.89,NE,45,1.3,2.9,33,0.00,,,0.00,WUHU216HW,2013-05-16 05:26:00,
2013-05-15 23:31:00,58.3,29.2,29.89,NE,45,1.8,2.7,33,0.00,,,0.00,WUHU216HW,2013-05-16 05:31:00,
2013-05-15 23:36:00,58.5,31.4,29.89,North,0,2.0,3.8,36,0.00,,,0.00,WUHU216HW,2013-05-16 05:36:00,
2013-05-15 23:41:00,58.7,31.6,29.89,NNE,23,3.1,3.8,36,0.00,,,0.00,WUHU216HW,2013-05-16 05:41:00,
2013-05-15 23:46:00,58.7,30.9,29.89,North,0,8.5,8.5,35,0.00,,,0.00,WUHU216HW,2013-05-16 05:46:00,
2013-05-15 23:52:00,58.9,30.3,29.89,NNW,338,6.3,9.2,34,0.00,,,0.00,WUHU216HW,2013-05-16 05:52:00,
2013-05-15 23:57:00,59.4,30.9,29.90,NNW,338,9.8,9.8,34,0.00,,,0.00,WUHU216HW,2013-05-16 05:57:00,